Participated 6 times
Between 2019 and 2025
Kasper Asgreen, Denmark
Tour de France 2026 starts from Barcelona, Spain in

Stats and Facts from
Tour de France.

2026   2025   2024   2023  2022  2021  2020  2019   2018  2017   2016   2015  2014  2013   2012   2011  2010   2009   2008   2007   2006   2005   2004   2003   2002   2001   2000   1999   1998   1997  1996   1995   1994   1993   1992  1991   1990   1989   1988   1987   1986   1985   1984   1983  1982  1981   1980   1979  1978  1977   1976  1975  1974  1973   1972   1971   1970  1969   1968   1967   1966   1965  1964  1963   1962   1961   1960   1959   1958   1957  1956   1955   1954   1953   1952  1951  1950  1949   1948  1947  1939   1938   1937   1936   1935   1934   1933  1932   1931   1930  1929   1928   1927   1926  1925  1924  1923   1922   1921   1920   1919  1914   1913   1912   1911   1910  1909   1908   1907   1906  1905  1904   1903 

Tourstats
Sitemap

After stage 21 - 2025:
 16451 starters.
  5463 different riders.
  689 teams.
  2398 stages.
  470 restdays.
  466506.50 km.
  5925 abandoned riders.

Click map for 1951 route.
Facts from Tour de France 1951 Additional info and images from 1951.
  |   Stages.  |   Stage winners.  |   Days in jerseys.  |   Teams.  |   All riders.  |   All riders by age.  |   All riders from.  |  

  |   Rookies.  |   Withdrawls.  |   Average speed.  |   GC.  |   Polka  |   Green  |   White  |   Summits. (In tour)  |   Miscellaneous.  |  

Stage 19 on July 24th. 1951
Pick a stage:  1  2  3  4  5  6  7  8  9  10  11  12  13  14  15  16  17  18  19  20  21  22  23  24  

After stage 19:    Hugo Koblet  
  MarseilleGap | Dist: 208.00km. | Winner: Armand Baeyens

Podium
2  Col des Sagnes Gino Bartaliafter170.00 km.

3  Col de la Sentinelle Armand Baeyensafter200.00 km.


Average speed for all riders in stage:  28,378 km./hr.

1
 Armand Baeyens  Belgium07h 15' 41"=28,645  km/h

2
 Gino Bartali  Italy07h 17' 12"+  00:01:31 =28,545  km/h

3
 Fiorenzo Magni  Italy07h 17' 12"+  00:01:31 =28,545  km/h

4  Jean Robic  Paris07h 17' 12"+  00:01:31 =28,545  km/h

5  Stan Ockers  Belgium07h 17' 12"+  00:01:31 =28,545  km/h

6  Raphaël Geminiani  France07h 17' 12"+  00:01:31 =28,545  km/h

7  Hugo Koblet  Switzerland07h 17' 12"+  00:01:31 =28,545  km/h

8  Jacques Marinelli  Île-de-France07h 17' 12"+  00:01:31 =28,545  km/h

9  Jean Goldschmit  Luxembourg07h 17' 12"+  00:01:31 =28,545  km/h

10  Nello Lauredi  France07h 17' 12"+  00:01:31 =28,545  km/h

11  Serifano Biagioni  Italy07h 17' 12"+  00:01:31 =28,545  km/h

12  Jean Diederich  Luxembourg07h 17' 12"+  00:01:31 =28,545  km/h

13  Gilbert Bauvin  Est-Sud Est07h 17' 12"+  00:01:31 =28,545  km/h

14  Lucien Lazarides  France07h 17' 12"+  00:01:31 =28,545  km/h

15  Louis Caput  Paris07h 17' 32"+  00:01:51 =28,524  km/h

16  Georges Meunier  Ouest-Sud Ouest07h 17' 32"+  00:01:51 =28,524  km/h

17  Paul Giguet  Est-Sud Est07h 17' 32"+  00:01:51 =28,524  km/h

18  Gottfried Weilenmann  Switzerland07h 17' 32"+  00:01:51 =28,524  km/h

19  Marcel Verschueren  Belgium07h 17' 32"+  00:01:51 =28,524  km/h

20  Jean-Louis Carle  Paris07h 17' 32"+  00:01:51 =28,524  km/h

21  Jean-Baptiste Dotto  Est-Sud Est07h 17' 32"+  00:01:51 =28,524  km/h

21  Hilaire Couvreur  Belgium07h 17' 32"+  00:01:51 =28,524  km/h

21  Bernard Gauthier  France07h 17' 32"+  00:01:51 =28,524  km/h

21  Louison Bobet  France07h 17' 32"+  00:01:51 =28,524  km/h

21  Bernardo Ruíz  Spain07h 17' 32"+  00:01:51 =28,524  km/h

21  Pierre Barbotin  France07h 17' 32"+  00:01:51 =28,524  km/h

21  Giuseppe Mirando  Est-Sud Est07h 17' 32"+  00:01:51 =28,524  km/h

21  Luciano Pezzi  Italy07h 17' 32"+  00:01:51 =28,524  km/h

21  Marcel Huber  Switzerland07h 17' 32"+  00:01:51 =28,524  km/h

21  Lucien Teisseire  France07h 17' 32"+  00:01:51 =28,524  km/h

21  Alois De Hertog  Belgium07h 17' 32"+  00:01:51 =28,524  km/h

21  Roger Decock  Belgium07h 17' 32"+  00:01:51 =28,524  km/h

21  Eduard Van Ende  Belgium07h 17' 32"+  00:01:51 =28,524  km/h

21  Fausto Coppi  Italy07h 17' 32"+  00:01:51 =28,524  km/h

21  Franco Franchi  Italy07h 17' 32"+  00:01:51 =28,524  km/h

21  Hans Sommer  Switzerland07h 17' 32"+  00:01:51 =28,524  km/h

21  Virgilio Salimbeni  Italy07h 17' 32"+  00:01:51 =28,524  km/h

21  Henri Kass  Luxembourg07h 17' 32"+  00:01:51 =28,524  km/h

21  Pierre Brambilla  Est-Sud Est07h 17' 32"+  00:01:51 =28,524  km/h

21  Jean-Marie Goasmat  Ouest-Sud Ouest07h 17' 32"+  00:01:51 =28,524  km/h

21  Roger Leveque  Ouest-Sud Ouest07h 17' 32"+  00:01:51 =28,524  km/h

42  José Serra Gil  Spain07h 17' 50"+  00:02:09 =28,504  km/h

43  Vincent Vitetta  Est-Sud Est07h 18' 33"+  00:02:52 =28,457  km/h

44  André Labeylie  Île-de-France07h 18' 33"+  00:02:52 =28,457  km/h

45  Roger Buchonnet  Est-Sud Est07h 18' 40"+  00:02:59 =28,450  km/h

46  Georges Aeschlimann  Switzerland07h 18' 40"+  00:02:59 =28,450  km/h

47  Joseph Morvan  Ouest-Sud Ouest07h 18' 40"+  00:02:59 =28,450  km/h

48  Dalmácio Langarica  Spain07h 19' 07"+  00:03:26 =28,421  km/h

49  Emile Baffert  Est-Sud Est07h 19' 36"+  00:03:55 =28,389  km/h

50  André Rosseel  Belgium07h 19' 47"+  00:04:06 =28,378  km/h

51  Raoul Remy  France07h 20' 19"+  00:04:38 =28,343  km/h

52  Angelo Colinelli  Est-Sud Est07h 21' 19"+  00:05:38 =28,279  km/h

53  Marcel De Mulder  Belgium07h 22' 06"+  00:06:25 =28,229  km/h

54  Adolphe Deledda  Est-Sud Est07h 22' 06"+  00:06:25 =28,229  km/h

54  Jean-Apotre Lazarides  France07h 22' 06"+  00:06:25 =28,229  km/h

54  Jean Gueguen  France07h 22' 06"+  00:06:25 =28,229  km/h

54  Andrea Carrea  Italy07h 22' 06"+  00:06:25 =28,229  km/h

54  Ettore Milano  Italy07h 22' 06"+  00:06:25 =28,229  km/h

54  Gino Sciardis  Île-de-France07h 22' 06"+  00:06:25 =28,229  km/h

54  Leo Weilenmann  Switzerland07h 22' 06"+  00:06:25 =28,229  km/h

54  Louis Deprez  Île-de-France07h 22' 06"+  00:06:25 =28,229  km/h

54  Robert Castelin  Est-Sud Est07h 22' 06"+  00:06:25 =28,229  km/h

63  Alois Vansteenkiste  Belgium07h 23' 37"+  00:07:56 =28,132  km/h

64  Abdel-Kader Zaaf  North Africa07h 24' 42"+  00:09:01 =28,064  km/h

65  Roger Walkowiak  Ouest-Sud Ouest07h 24' 42"+  00:09:01 =28,064  km/h

66  Germain Derycke  Belgium07h 27' 37"+  00:11:56 =27,881  km/h

67  Jean Mayen  North Africa07h 27' 37"+  00:11:56 =27,881  km/h

68  Edouard Muller  France07h 27' 37"+  00:11:56 =27,881  km/h

69  Jean Baldassari  France07h 27' 37"+  00:11:56 =27,881  km/h

70  Francisco Masip  Spain07h 28' 58"+  00:13:17 =27,797  km/h

71  Manuel Rodriguez  Spain07h 28' 58"+  00:13:17 =27,797  km/h

72  Willy Kemp  Luxembourg07h 28' 58"+  00:13:17 =27,797  km/h

73  Maurice Diot  Paris07h 28' 58"+  00:13:17 =27,797  km/h


Todays birthdays.

1869 • Adolphe Dorion
1884 • Achille Germain
1886 • Emile Eigeldinger
1896 • Andre Léger
1907 • Frans Dictus
1921 • Alberto Ghirardi
1934 • Joseph Planckaert
1945 • Leif Mortensen
1952 • Alex Van Linden
1960 • Roberto Bressan
1960 • Bernard Chesneau
1962 • Paul Watson
1963 • Juan Rozas
1965 • Jean-Pierre Heynderickx
1967 • José-Manuel Oliveira
1970 • Wilfried Nelissen
1980 • Nick Nuyens
1996 • Jai Hindley

 

Optimized for Chrome - Edge
and Opera browsers.